sat.trackr.live / text

‹ back to catalog

MR-2

NORAD 67556 · 2026-015A

PAYLOAD ACTIVE UNKNOWN

§ Identity

Operator
Country
SPN
Launch date
2026-01-22
Launch site
RLLB
Launch vehicle
Mass (kg)
RCS (m²)

External: N2YO · Heavens-Above · Gunter

§ Orbital elements

Epoch: 2026-05-25T01:12:43.066944Z

Period
106.45 min
Inclination
88.9987°
Eccentricity
0.0004778
Mean motion
13.52692359 rev/d
Perigee alt
1,058.8 km
Apogee alt
1,065.9 km
Semi-major
7,440.5 km
B*
7.7601e-5
RAAN
270.8817°
Arg perigee
127.6169°
Mean anomaly
232.5417°
Rev number
1,658

§ Raw data

MR-21 67556U 26015A   26145.05049846  .00000064  00000+0  77601-4 0  99912 67556  88.9987 270.8817 0004778 127.6169 232.5417 13.52692359 16580

JSON: /api/v1/satellites/67556 · /tle

For live sub-satellite position, see the globe view (requires WebGL).

§ Visibility from observer

Set your observer location to see the next 7 days of passes ≥ 10°. The values pass through the URL so the page stays shareable.

No JS? Fill the form by hand. The geolocation button needs JavaScript.

§ Radio — SatNOGS DB

ModeDescriptionDownlinkUplink
FM S-band telemetry 2.249 GHz

1 transmitter · refreshed weekly from db.satnogs.org